When you browse on this site, cookies collect data to enhance your experience and personalize the content and advertising you see.
Visit our Privacy Policy to learn more. By continuing to use the site, you agree to this use of cookies and data.
  • En España
  • Lista de países
  • Para 7 días
  • Temperatura del agua
  • Mapa Satelital
  • El tiempo en el mapa
  • Informadores
  • user-avatar
    Iniciar sesión

    Tiempo cada hora Volokovaya

    Hoy, 20 Julio, Sábado

    Tiempo Temperatura Precipitaciones Viento Presión Humedad
    00:00 +14°C° 0 mm 4 mps 742 mmHg 80%
    01:00 +14°C° 0 mm 4 mps 742 mmHg 82%
    02:00 +13°C° 0 mm 4 mps 742 mmHg 85%
    03:00 +13°C° 0 mm 4 mps 742 mmHg 87%
    04:00 +12°C° 0 mm 4 mps 743 mmHg 88%
    05:00 +12°C° 0 mm 4 mps 743 mmHg 90%
    06:00 +14°C° 0 mm 4 mps 743 mmHg 86%
    07:00 +15°C° 0 mm 4 mps 743 mmHg 81%
    08:00 +18°C° 0 mm 4 mps 743 mmHg 76%
    09:00 +19°C° 0 mm 4 mps 744 mmHg 74%
    10:00 +19°C° 0 mm 4 mps 744 mmHg 72%
    11:00 +20°C° 0 mm 4 mps 744 mmHg 69%
    12:00 +21°C° 0 mm 4 mps 744 mmHg 67%
    13:00 +22°C° 0 mm 4 mps 744 mmHg 65%
    14:00 +23°C° 0 mm 4 mps 745 mmHg 63%
    15:00 +22°C° 0 mm 4 mps 745 mmHg 65%
    16:00 +22°C° 0 mm 4 mps 745 mmHg 66%
    17:00 +22°C° 0 mm 4 mps 745 mmHg 68%
    18:00 +20°C° 0 mm 3 mps 745 mmHg 71%
    19:00 +18°C° 0 mm 3 mps 745 mmHg 75%
    20:00 +16°C° 0 mm 3 mps 745 mmHg 78%
    21:00 +14°C° 0 mm 3 mps 745 mmHg 79%
    22:00 +15°C° 0 mm 2 mps 745 mmHg 79%
    23:00 +14°C° 0 mm 2 mps 745 mmHg 80%

    Mañana, 21 Julio, Domingo

    Tiempo Temperatura Precipitaciones Viento Presión Humedad
    00:00 +13°C° 0 mm 2 mps 745 mmHg 82%
    01:00 +13°C° 0 mm 2 mps 746 mmHg 84%
    02:00 +13°C° 0 mm 2 mps 746 mmHg 86%
    03:00 +13°C° 0 mm 2 mps 746 mmHg 87%
    04:00 +13°C° 0 mm 2 mps 746 mmHg 88%
    05:00 +13°C° 0 mm 1 mps 746 mmHg 90%
    06:00 +15°C° 0 mm 1 mps 746 mmHg 85%
    07:00 +18°C° 0 mm 1 mps 746 mmHg 80%
    08:00 +20°C° 0 mm 1 mps 746 mmHg 76%
    09:00 +20°C° 0 mm 2 mps 747 mmHg 71%
    10:00 +21°C° 0 mm 2 mps 747 mmHg 67%
    11:00 +24°C° 0 mm 2 mps 747 mmHg 62%
    12:00 +24°C° 0 mm 2 mps 746 mmHg 61%
    13:00 +25°C° 0 mm 3 mps 746 mmHg 60%
    14:00 +25°C° 0 mm 3 mps 746 mmHg 59%
    15:00 +25°C° 0 mm 3 mps 746 mmHg 62%
    16:00 +25°C° 0 mm 3 mps 746 mmHg 66%
    17:00 +24°C° 0 mm 2 mps 746 mmHg 69%
    18:00 +23°C° 0 mm 2 mps 746 mmHg 74%
    19:00 +21°C° 0 mm 1 mps 746 mmHg 80%
    20:00 +17°C° 0 mm 0 mps 746 mmHg 85%
    21:00 +16°C° 0 mm 0 mps 746 mmHg 86%
    22:00 +16°C° 0 mm 0 mps 746 mmHg 86%
    23:00 +15°C° 0 mm 0 mps 746 mmHg 87%

    Pasado mañana, 22 Julio, Lunes

    Tiempo Temperatura Precipitaciones Viento Presión Humedad
    00:00 +15°C° 0 mm 0 mps 746 mmHg 87%
    01:00 +14°C° 0 mm 0 mps 746 mmHg 88%
    02:00 +15°C° 0 mm 1 mps 745 mmHg 88%
    03:00 +15°C° 0 mm 1 mps 745 mmHg 88%
    04:00 +15°C° 0 mm 1 mps 745 mmHg 88%
    05:00 +15°C° 0 mm 1 mps 745 mmHg 88%
    06:00 +18°C° 0 mm 1 mps 745 mmHg 85%
    07:00 +19°C° 0 mm 2 mps 745 mmHg 81%
    08:00 +20°C° 0 mm 2 mps 744 mmHg 78%
    09:00 +21°C° 0.4 mm 2 mps 744 mmHg 76%
    10:00 +23°C° 0.4 mm 2 mps 744 mmHg 73%
    11:00 +24°C° 0.4 mm 2 mps 744 mmHg 71%
    12:00 +23°C° 1.2 mm 2 mps 744 mmHg 78%
    13:00 +20°C° 1.2 mm 2 mps 743 mmHg 85%
    14:00 +19°C° 1.2 mm 2 mps 743 mmHg 92%
    15:00 +18°C° 0.5 mm 2 mps 743 mmHg 93%
    16:00 +18°C° 0.5 mm 2 mps 743 mmHg 94%
    17:00 +18°C° 0.5 mm 2 mps 743 mmHg 95%
    18:00 +17°C° 0 mm 2 mps 743 mmHg 95%
    19:00 +17°C° 0 mm 2 mps 742 mmHg 95%
    20:00 +16°C° 0 mm 2 mps 742 mmHg 96%
    21:00 +16°C° 0 mm 2 mps 742 mmHg 96%
    22:00 +16°C° 0 mm 2 mps 742 mmHg 96%
    23:00 +15°C° 0 mm 2 mps 742 mmHg 97%

    23 Julio, Martes

    Tiempo Temperatura Precipitaciones Viento Presión Humedad
    00:00 +15°C° 0 mm 2 mps 742 mmHg 97%
    01:00 +15°C° 0 mm 2 mps 742 mmHg 97%
    02:00 +15°C° 0 mm 1 mps 742 mmHg 98%
    03:00 +16°C° 0.2 mm 1 mps 742 mmHg 98%
    04:00 +16°C° 0.2 mm 1 mps 742 mmHg 98%
    05:00 +16°C° 0.2 mm 1 mps 742 mmHg 98%
    06:00 +16°C° 0.2 mm 1 mps 741 mmHg 97%
    07:00 +17°C° 0.2 mm 2 mps 741 mmHg 97%
    08:00 +17°C° 0.2 mm 2 mps 741 mmHg 96%
    09:00 +17°C° 0.1 mm 2 mps 741 mmHg 94%
    10:00 +17°C° 0.1 mm 2 mps 742 mmHg 93%
    11:00 +18°C° 0.1 mm 3 mps 742 mmHg 91%
    12:00 +18°C° 0.1 mm 3 mps 742 mmHg 91%
    13:00 +18°C° 0.1 mm 3 mps 742 mmHg 91%
    14:00 +18°C° 0.1 mm 4 mps 742 mmHg 91%
    15:00 +17°C° 0.1 mm 4 mps 742 mmHg 92%
    16:00 +17°C° 0.1 mm 4 mps 742 mmHg 93%
    17:00 +17°C° 0.1 mm 4 mps 742 mmHg 94%
    18:00 +17°C° 0 mm 4 mps 742 mmHg 94%
    19:00 +16°C° 0 mm 3 mps 742 mmHg 94%
    20:00 +16°C° 0 mm 3 mps 742 mmHg 94%
    21:00 +16°C° 0 mm 3 mps 743 mmHg 94%
    22:00 +16°C° 0 mm 3 mps 743 mmHg 95%
    23:00 +14°C° 0 mm 3 mps 743 mmHg 95%

    24 Julio, Miércoles

    Tiempo Temperatura Precipitaciones Viento Presión Humedad
    00:00 +14°C° 0 mm 3 mps 743 mmHg 94%
    01:00 +14°C° 0 mm 3 mps 743 mmHg 93%
    02:00 +16°C° 0 mm 3 mps 743 mmHg 93%
    03:00 +14°C° 0 mm 3 mps 743 mmHg 93%
    04:00 +14°C° 0 mm 3 mps 743 mmHg 94%
    05:00 +13°C° 0 mm 3 mps 743 mmHg 94%
    06:00 +16°C° 0 mm 3 mps 744 mmHg 89%
    07:00 +18°C° 0 mm 3 mps 744 mmHg 83%
    08:00 +19°C° 0 mm 3 mps 744 mmHg 78%
    09:00 +21°C° 0 mm 3 mps 744 mmHg 72%
    10:00 +22°C° 0 mm 3 mps 745 mmHg 65%
    11:00 +25°C° 0 mm 4 mps 745 mmHg 59%
    12:00 +25°C° 0 mm 4 mps 745 mmHg 58%
    13:00 +26°C° 0 mm 4 mps 745 mmHg 56%
    14:00 +26°C° 0 mm 4 mps 745 mmHg 55%
    15:00 +26°C° 0 mm 3 mps 745 mmHg 59%
    16:00 +25°C° 0 mm 3 mps 745 mmHg 64%
    17:00 +25°C° 0 mm 3 mps 745 mmHg 68%
    18:00 +22°C° 0 mm 3 mps 745 mmHg 73%
    19:00 +20°C° 0 mm 2 mps 745 mmHg 77%
    20:00 +18°C° 0 mm 2 mps 745 mmHg 82%
    21:00 +18°C° 0 mm 2 mps 745 mmHg 83%
    22:00 +17°C° 0 mm 2 mps 746 mmHg 84%
    23:00 +16°C° 0 mm 2 mps 746 mmHg 86%

    25 Julio, Jueves

    Tiempo Temperatura Precipitaciones Viento Presión Humedad
    00:00 +15°C° 0 mm 2 mps 746 mmHg 87%
    01:00 +15°C° 0 mm 2 mps 746 mmHg 89%
    02:00 +14°C° 0 mm 2 mps 746 mmHg 90%
    03:00 +14°C° 0 mm 2 mps 746 mmHg 90%
    04:00 +14°C° 0 mm 2 mps 746 mmHg 90%
    05:00 +14°C° 0 mm 2 mps 746 mmHg 90%
    06:00 +16°C° 0 mm 2 mps 746 mmHg 85%
    07:00 +18°C° 0 mm 3 mps 746 mmHg 80%
    08:00 +20°C° 0 mm 3 mps 747 mmHg 75%
    09:00 +21°C° 0 mm 3 mps 747 mmHg 69%
    10:00 +24°C° 0 mm 3 mps 747 mmHg 63%
    11:00 +25°C° 0 mm 3 mps 747 mmHg 57%
    12:00 +26°C° 0 mm 3 mps 747 mmHg 56%
    13:00 +26°C° 0 mm 3 mps 746 mmHg 54%
    14:00 +27°C° 0 mm 3 mps 746 mmHg 53%
    15:00 +27°C° 0 mm 3 mps 746 mmHg 57%
    16:00 +27°C° 0 mm 2 mps 746 mmHg 61%
    17:00 +27°C° 0 mm 2 mps 746 mmHg 65%
    18:00 +25°C° 0 mm 2 mps 746 mmHg 70%
    19:00 +23°C° 0 mm 2 mps 746 mmHg 75%
    20:00 +20°C° 0 mm 2 mps 746 mmHg 80%
    21:00 +19°C° 0 mm 2 mps 746 mmHg 84%
    22:00 +18°C° 0 mm 2 mps 746 mmHg 88%
    23:00 +17°C° 0 mm 2 mps 746 mmHg 92%
    Mostrar más